Location: Moscow
(55.7500°N, 37.5830°E)
Time: 10:18:41
(UTC+03:00)

Explorer 7 - Pass Details

Date: 02 December 2021
Orbit: 483 x 674 km, 50.3° (Epoch: 19 January)

Event Time Altitude Azimuth Distance (km) Brightness Sun altitude
Rises 11:29:20 0° 270° (W) 2,646 10.2 11.5°
Reaches altitude 10° 11:31:51 10° 257° (WSW) 1,728 9.4 11.6°
Maximum altitude 11:35:02 24° 202° (SSW) 1,060 9.4 11.7°
Drops below altitude 10° 11:38:07 10° 147° (SSE) 1,674 10.8 11.8°
Sets 11:40:31 0° 133° (SE) 2,542 11.1 11.8°
